Temperature
13 13 14 14 12 11 13 13 13 14 14 16 17 17 16 16 16 17 17 17 17 17 17 16 16 16 16 17 17 17 17 17 17 17 17 17 17 16 16 16 16 16 16 16 16 16 16 16 16
13 13 14 14 11 12 13 13 13 14 16 16 16 16 16 15 16 17 17 17 16 16 16 16 16 16 16 16 17 17 17 17 17 17 17 17 16 16 16 16 16 16 16 16 16 15 15 15 15
13 13 14 11 11 12 14 14 13 14 16 16 15 16 16 15 16 16 17 16 16 16 16 16 16 16 16 16 16 16 17 17 17 16 16 16 16 16 16 16 16 15 15 15 15 15 15 15 15
13 13 13 11 12 12 13 14 13 14 15 16 15 15 15 15 16 16 16 16 16 16 16 16 16 15 16 16 16 16 16 16 16 16 16 16 16 16 16 15 15 15 15 15 15 15 15 15 15
13 13 11 11 12 12 12 13 14 14 14 15 15 14 15 15 16 16 16 16 16 16 15 15 15 15 15 16 16 16 16 16 16 16 16 16 16 16 15 15 15 15 15 14 14 14 14 14 14
13 11 10 11 12 12 12 14 15 14 14 14 15 14 15 15 16 16 15 15 15 15 15 15 15 15 15 15 16 16 16 16 16 16 15 15 15 15 15 15 15 15 14 14 14 14 14 14 14
12 10 11 11 12 13 14 15 14 13 13 14 15 13 14 15 15 15 15 15 15 15 15 15 15 15 15 15 15 15 15 15 15 15 15 15 15 15 15 15 14 14 14 14 14 14 14 14 13
12 10 11 11 12 13 14 15 15 15 14 15 15 14 14 15 15 15 15 14 14 14 14 14 15 15 15 15 15 15 15 15 15 15 15 15 15 14 14 14 14 14 14 14 14 14 13 13 13
12 10 10 11 12 13 14 14 14 15 15 14 15 15 15 15 15 14 14 14 14 14 14 14 14 14 15 15 15 15 15 14 14 14 14 14 14 14 14 14 14 14 14 13 13 13 13 13 13
11 10 11 12 12 13 13 13 14 14 13 13 14 14 14 14 14 15 15 14 14 14 14 14 14 14 14 14 14 14 14 14 14 14 14 14 14 14 13 13 13 13 13 13 13 13 13 13 13
10 10 11 12 13 13 13 13 14 13 13 14 14 14 14 14 14 14 15 15 14 14 14 14 14 14 14 14 14 14 14 14 14 14 13 13 13 13 13 13 13 13 13 13 13 12 12 12 12
10 10 11 12 13 13 13 13 13 13 14 15 15 15 14 13 14 14 14 14 14 14 14 14 14 14 14 14 14 14 14 13 13 13 13 13 13 13 13 12 12 12 12 12 12 12 12 12 12
10 10 11 12 13 13 13 12 12 12 14 15 15 14 14 14 14 14 14 14 14 14 14 14 13 13 13 13 13 13 13 13 13 13 13 13 12 12 12 12 12 12 12 12 12 12 12 12 12
10 10 11 11 12 12 12 11 11 12 13 13 14 13 14 14 14 13 13 13 13 13 13 13 13 13 13 13 13 13 13 13 12 12 12 12 12 12 12 12 12 12 11 11 11 11 11 11 11
10 10 10 10 11 11 12 11 10 12 12 12 12 13 13 13 13 13 14 14 13 13 13 13 13 13 13 13 13 12 12 12 12 12 12 12 11 11 11 11 11 11 11 11 11 11 11 11 10
9 9 9 10 10 11 11 10 10 11 11 11 11 12 12 12 13 13 13 13 13 13 13 13 13 13 12 12 12 12 12 12 12 11 11 11 11 11 11 11 11 11 11 10 10 10 10 10 10
8 8 8 10 10 10 10 10 9 10 10 10 10 11 11 12 12 13 13 13 13 13 13 13 12 12 12 12 12 12 11 11 11 11 11 11 11 11 11 11 11 10 10 10 10 10 10 10 10
7 7 8 9 9 9 9 9 9 9 9 9 9 10 10 11 12 12 12 12 12 12 12 12 12 12 12 12 11 11 11 11 11 11 11 11 10 10 10 10 10 10 10 10 10 9 9 9 9
7 7 7 8 9 9 8 8 8 8 8 8 9 9 10 11 11 12 12 12 12 12 12 12 12 12 12 11 11 11 11 11 11 10 10 10 10 10 10 10 10 10 10 9 9 9 9 9 8
7 7 7 8 8 9 8 8 8 7 8 8 9 9 9 10 10 11 11 11 12 12 12 12 12 12 11 11 11 11 11 11 10 10 10 10 10 10 10 9 9 9 9 9 9 9 9 8 8
7 7 7 7 8 8 8 8 8 8 8 8 8 9 9 9 10 10 11 11 11 11 11 12 12 11 11 11 11 11 10 10 10 10 10 10 9 9 9 9 9 9 9 9 8 8 8 8 8
7 7 7 7 7 6 8 7 7 7 7 7 7 8 8 9 9 10 10 10 11 11 11 11 11 11 11 11 11 10 10 10 10 10 10 9 9 9 9 9 8 8 8 8 8 8 8 8 8
6 7 7 6 6 6 6 6 6 6 6 6 6 7 8 8 9 9 10 10 10 10 10 10 10 10 10 10 10 10 10 10 10 9 9 9 9 9 8 8 8 8 8 8 8 8 8 7 7
6 6 6 5 5 6 6 6 6 5 6 6 6 7 7 8 8 9 9 9 10 10 10 10 10 10 10 10 10 9 9 9 9 9 9 9 9 9 8 8 8 8 8 8 8 7 7 7 7
6 5 5 5 5 6 5 6 6 6 5 6 6 6 6 7 7 8 8 9 9 9 9 9 9 10 9 9 9 9 9 9 9 9 9 9 9 8 8 8 8 8 8 7 7 7 7 7 7
5 5 5 5 5 5 5 5 5 5 5 6 6 6 6 6 7 7 8 8 8 9 9 9 9 9 9 9 9 9 9 9 8 8 8 8 8 8 8 8 8 7 7 7 7 7 7 6 6
5 4 5 4 4 5 5 4 5 5 4 4 5 5 5 6 7 7 7 8 8 8 8 8 8 8 8 8 8 8 8 8 8 8 8 8 8 8 8 8 7 7 7 7 7 6 6 6 6
5 4 3 4 5 5 6 5 4 5 4 4 3 4 5 6 6 6 7 7 7 7 7 7 7 8 8 8 8 8 8 8 8 8 8 8 8 7 7 7 7 7 7 6 6 6 6 6 6
4 4 3 3 3 4 5 5 5 4 4 3 3 4 4 5 5 6 6 6 6 7 7 7 7 7 7 7 7 7 7 7 8 7 7 7 7 7 7 7 7 7 6 6 6 6 5 5 5
4 3 3 3 3 2 3 5 4 3 3 3 3 3 4 4 5 5 5 6 6 6 6 6 6 6 6 6 7 7 7 7 7 7 7 7 7 7 7 7 6 6 6 6 6 6 5 5 5
Wind_Speed
2 4 3 4 5 3 4 6 4 3 3 2 2 4 7 6 5 4 1 4 7 7 8 12 13 13 13 12 12 12 12 11 11 11 10 10 9 9 9 9 8 8 8 7 7 7 6 6 6
2 3 4 4 4 3 6 6 6 6 4 3 2 3 3 1 1 3 3 4 7 8 9 11 14 13 13 12 12 12 11 11 11 10 10 9 9 8 8 8 8 8 7 7 7 7 6 5 5
3 3 4 4 5 7 6 5 6 2 2 2 2 2 3 3 3 4 3 7 8 7 9 11 14 13 12 12 12 11 11 10 10 10 9 9 9 9 8 8 8 7 7 7 7 6 6 5 5
3 3 4 3 7 7 5 3 3 1 0 1 3 2 0 1 1 3 6 9 9 7 8 11 14 13 12 11 11 11 10 10 9 9 9 8 8 8 8 8 7 7 7 6 6 6 6 6 5
3 4 3 3 7 5 4 3 2 1 2 1 3 3 1 4 2 6 8 9 9 7 7 10 13 13 12 11 11 10 10 9 9 8 8 8 7 7 7 7 7 7 6 6 6 6 6 6 6
3 3 4 6 7 5 4 4 2 2 2 2 4 3 1 2 4 6 8 8 7 8 7 9 12 12 12 11 11 10 9 9 9 8 8 7 7 7 7 7 6 6 6 5 5 5 5 5 5
4 4 6 6 4 4 3 3 5 4 3 4 5 4 1 1 4 7 7 7 7 7 7 7 8 10 11 11 10 10 9 9 8 8 7 7 7 7 6 6 6 5 5 5 5 5 4 5 5
4 4 4 5 5 5 2 2 2 4 3 2 5 7 5 4 6 8 8 7 6 5 5 6 7 8 8 9 10 10 9 9 8 8 7 7 7 6 6 6 5 5 4 4 4 4 4 5 5
3 3 6 7 7 4 1 1 1 1 4 2 1 3 3 8 9 9 7 5 5 4 3 4 5 6 7 8 8 9 8 8 8 7 7 7 6 6 5 5 5 5 5 4 4 4 4 5 5
4 6 9 6 5 3 1 2 2 2 2 1 2 3 5 8 10 10 9 8 7 5 3 3 4 5 6 6 7 7 6 7 7 6 6 6 6 5 5 5 5 5 5 5 5 5 5 5 5
6 7 5 4 3 2 1 1 2 5 3 5 5 6 7 8 8 9 8 8 7 6 4 3 3 4 5 4 5 5 5 5 5 5 6 5 5 5 5 4 4 4 5 4 5 5 4 3 3
5 5 4 3 2 1 2 2 1 4 5 3 5 8 9 9 9 9 9 7 6 5 5 3 3 3 4 4 4 4 3 3 3 3 5 4 3 3 3 3 3 3 3 3 3 3 3 3 3
6 4 3 3 1 2 1 2 2 4 3 1 4 6 8 8 7 6 6 5 5 5 5 4 4 4 3 4 3 3 2 2 2 3 3 4 3 1 1 1 2 2 2 2 2 2 2 2 2
5 3 3 3 3 2 3 3 1 4 2 3 5 6 7 8 8 6 6 6 7 6 6 4 4 4 4 3 3 3 2 3 2 2 2 3 3 2 2 1 1 1 1 1 1 1 1 1 1
2 1 3 3 3 3 2 4 4 4 4 4 4 5 5 6 6 7 7 7 7 6 5 5 5 4 4 4 3 2 2 3 2 1 2 2 3 3 2 1 1 0 0 1 1 1 1 1 2
2 2 3 4 3 3 4 7 4 2 4 4 3 3 4 5 6 6 6 5 5 5 5 5 5 4 4 3 3 2 2 2 2 2 2 2 2 3 2 1 1 1 0 1 0 0 1 2 2
2 5 5 3 3 3 5 6 4 1 4 4 4 4 4 4 4 4 5 5 5 6 5 5 5 5 4 3 2 2 2 2 1 2 1 1 2 2 2 1 1 1 1 0 0 0 0 1 2
5 5 4 5 2 2 4 6 4 1 3 4 4 4 4 5 6 4 3 4 4 4 4 5 4 4 4 3 2 2 2 1 1 1 1 1 1 2 2 1 1 1 1 0 0 1 1 1 2
4 4 3 4 2 2 5 7 6 3 3 4 4 4 5 6 4 2 2 3 3 3 4 5 5 4 4 3 3 2 2 1 1 1 1 1 1 1 1 1 1 1 1 1 1 1 1 1 1
4 3 2 2 1 2 3 7 5 5 5 6 6 6 5 4 1 1 2 2 3 4 4 4 5 5 5 4 3 2 2 2 2 1 1 1 1 1 1 1 1 1 1 1 1 0 0 1 1
3 6 4 2 2 1 1 5 4 4 2 1 2 3 3 4 4 3 2 2 2 3 5 5 5 5 4 3 3 2 2 2 1 0 1 1 1 2 2 2 1 1 2 2 2 2 1 1 1
5 4 3 2 1 2 2 4 5 3 2 3 4 3 3 3 3 3 3 2 3 4 3 4 4 4 4 4 5 5 3 2 3 2 2 2 1 1 1 1 2 2 2 2 2 2 2 2 2
3 2 2 2 2 1 2 3 6 1 4 6 5 5 4 3 3 3 3 3 2 3 2 3 3 3 3 4 5 5 3 2 1 1 1 1 1 1 1 1 1 2 2 2 2 2 2 2 2
3 3 3 2 2 3 6 6 5 3 4 5 5 4 3 2 1 1 0 1 0 1 2 2 3 3 3 4 4 4 4 2 2 1 2 1 1 1 1 1 1 2 2 2 3 2 2 2 2
4 5 2 0 2 5 3 4 6 4 3 4 5 4 2 2 2 1 1 1 1 1 2 2 2 2 3 3 3 3 3 3 4 3 3 2 1 2 3 2 2 2 2 3 2 2 3 3 3
4 5 5 4 5 3 2 5 5 3 3 3 2 1 1 1 1 1 1 1 1 1 2 2 2 1 2 3 3 2 2 2 2 2 2 3 3 3 2 2 2 2 2 2 2 2 2 2 3
4 2 2 3 1 1 4 4 5 3 5 5 3 2 1 0 0 0 0 1 1 1 2 2 2 1 1 2 2 2 2 2 2 1 1 2 2 2 2 2 2 2 2 1 1 1 2 2 2
3 5 4 3 3 3 3 3 3 4 4 3 3 2 1 1 1 1 1 1 1 1 1 1 1 2 1 1 2 1 1 1 1 1 1 1 2 1 1 1 1 1 1 1 1 1 1 1 2
3 3 3 3 3 3 2 4 2 3 2 2 2 2 1 1 1 1 2 2 2 2 2 2 1 1 1 0 1 1 1 1 1 1 1 1 1 1 1 1 1 1 1 1 1 1 1 1 2
1 3 4 4 2 2 2 4 2 2 2 1 1 1 2 2 2 2 2 3 3 3 2 1 1 1 1 1 0 1 1 1 0 0 1 1 1 1 1 1 1 1 1 1 1 2 1 1 2
Wind_Direction
70 81 74 61 65 66 231 235 212 215 213 210 159 146 156 161 164 180 143 134 128 135 141 142 137 132 127 124 121 116 112 109 107 105 103 101 100 97 93 89 84 81 79 75 72 72 72 70 69
113 94 63 70 113 184 248 227 210 212 188 133 85 103 113 182 185 123 141 146 131 133 131 135 135 130 127 124 122 119 115 111 108 104 102 101 99 96 92 88 84 82 77 72 69 65 65 68 70
124 70 97 101 159 194 221 212 208 232 209 177 109 92 142 164 165 163 167 140 124 122 123 133 133 130 127 125 123 121 117 113 109 105 104 101 97 93 89 83 80 80 75 70 65 61 58 58 64
108 68 70 127 218 224 220 207 168 153 56 115 132 99 22 356 205 167 137 132 123 113 116 130 132 129 127 126 124 122 118 115 111 109 106 102 96 91 87 82 77 74 72 69 64 59 56 56 59
75 102 124 218 236 245 238 231 187 168 172 123 129 128 339 345 68 118 127 131 128 117 110 126 130 130 128 126 124 122 121 117 114 111 107 102 96 91 87 83 78 73 69 66 63 58 56 55 52
87 101 156 219 236 254 248 208 179 182 168 149 136 129 229 0 107 124 127 125 124 121 107 122 131 130 129 127 125 122 119 117 113 110 107 102 99 94 90 85 80 75 69 64 59 57 54 51 48
139 144 190 205 225 249 230 182 172 179 184 193 158 132 205 201 134 123 115 112 109 108 105 102 118 127 131 129 125 123 120 116 112 108 104 101 97 92 88 84 81 76 69 62 57 54 49 46 43
148 143 187 206 207 232 219 164 165 167 188 164 146 152 192 194 136 117 105 102 102 98 101 100 102 109 117 123 124 122 119 116 112 107 102 99 95 89 83 77 77 73 67 60 56 52 48 43 38
119 146 206 206 198 221 182 122 10 59 117 94 134 178 188 136 133 124 116 109 116 111 102 101 103 101 108 117 121 120 121 116 110 102 97 92 87 83 80 76 75 72 66 58 51 49 46 42 41
151 199 216 209 197 203 206 166 168 96 74 89 52 52 101 132 147 150 153 155 157 157 147 124 121 112 108 113 110 105 106 104 100 98 96 90 86 80 81 79 74 69 67 59 49 48 49 46 46
184 208 218 229 224 200 193 199 174 138 203 205 183 158 140 148 159 163 167 168 170 166 158 149 135 118 112 105 106 96 94 93 94 98 101 97 86 76 74 72 65 60 61 56 45 43 42 43 41
198 231 221 232 222 208 199 182 189 203 224 210 172 158 156 163 174 178 177 176 166 162 168 156 138 127 120 114 113 111 101 98 96 105 110 105 88 77 71 70 67 65 63 55 46 45 32 26 19
215 231 235 243 262 234 209 232 220 256 260 155 138 150 167 175 184 186 175 171 166 174 177 171 156 152 137 125 122 118 116 124 125 121 119 121 116 116 99 78 74 65 66 66 51 46 32 21 9
207 215 238 255 245 249 210 262 212 255 197 137 151 174 183 185 186 182 180 180 182 184 185 175 169 162 145 145 145 144 137 136 126 125 138 137 135 139 139 119 89 66 61 66 77 44 12 343 349
158 200 293 262 223 221 161 284 237 225 144 150 176 188 192 197 192 193 193 190 189 186 179 177 174 158 154 153 150 139 146 139 135 140 154 153 152 160 155 156 171 182 40 54 53 28 33 348 342
93 151 233 261 206 202 164 244 256 198 154 184 201 199 205 215 209 208 199 189 184 178 175 179 174 163 164 155 149 139 143 138 138 147 155 167 176 169 150 168 214 202 135 110 158 296 343 331 325
149 200 217 257 217 169 182 237 252 194 165 202 218 214 216 227 232 219 204 193 186 183 176 172 168 167 169 156 139 133 123 128 133 146 156 167 173 170 157 178 203 173 150 187 247 341 314 305 318
198 194 203 216 232 176 220 247 265 244 189 221 232 230 224 224 232 217 199 193 185 179 172 168 164 163 154 136 116 105 106 107 96 137 175 169 171 172 153 157 166 152 173 249 238 275 315 282 291
175 179 212 238 248 201 233 256 259 251 226 235 240 235 232 235 238 191 179 168 162 160 167 174 165 163 155 148 151 154 183 199 203 221 202 184 184 174 147 159 168 167 199 221 233 260 324 322 328
159 181 206 292 293 204 248 269 258 236 227 225 227 235 234 237 242 199 177 160 168 178 177 174 177 174 174 176 172 169 168 191 203 221 237 210 205 194 184 177 206 202 204 213 222 203 303 313 0
200 186 197 217 346 351 304 294 263 259 248 261 253 244 234 216 213 212 197 188 179 184 187 186 185 177 174 161 137 99 79 59 61 263 269 275 251 222 210 197 196 210 198 216 229 214 207 255 297
218 200 189 189 142 276 182 261 277 263 290 286 275 262 248 241 222 213 200 192 198 206 193 185 181 172 165 156 159 157 167 186 206 208 229 258 255 236 221 208 206 209 217 224 233 229 222 209 253
191 171 190 197 165 258 222 215 282 306 278 271 265 255 252 237 210 207 205 203 207 196 179 182 169 163 157 161 167 168 175 189 186 181 211 236 253 250 242 227 217 217 224 233 234 239 223 213 224
135 82 49 66 107 236 212 186 275 242 243 277 266 256 239 220 197 181 141 112 132 134 136 134 145 161 159 158 161 169 173 168 162 195 207 232 261 249 252 248 235 228 226 232 234 234 228 232 233
120 117 89 61 215 242 183 184 247 262 250 250 253 246 223 191 162 138 99 70 60 108 133 133 136 153 162 159 167 179 178 179 188 201 207 216 234 250 249 249 241 244 241 235 226 230 236 240 239
181 154 162 187 209 260 175 217 248 293 306 297 274 236 106 110 160 179 181 164 179 173 157 146 153 150 167 171 179 177 170 182 207 210 211 214 227 236 236 236 238 243 244 246 226 235 245 249 247
141 173 150 128 127 217 238 266 298 340 354 360 10 37 70 172 185 169 65 88 129 163 172 173 166 157 174 183 177 170 172 186 209 232 226 226 245 255 237 228 231 242 243 239 237 244 260 263 256
142 139 105 129 163 231 267 256 267 303 315 337 359 353 336 14 41 49 44 54 63 102 114 120 141 166 168 180 185 179 193 208 209 202 246 252 261 254 236 229 226 232 237 233 226 248 272 266 272
95 112 118 131 161 169 236 267 242 264 294 300 307 330 359 12 16 37 33 30 51 62 72 82 77 67 64 97 174 158 183 191 173 199 259 274 269 244 221 223 219 212 226 251 242 259 271 264 283
134 155 143 153 214 188 195 269 333 308 319 323 310 341 11 21 20 47 57 51 45 47 45 48 49 43 22 5 96 160 148 124 126 265 284 288 274 250 232 216 218 227 229 233 231 253 269 263 270
Height
1488 1490 1492 1495 1500 1509 1508 1500 1495 1493 1492 1490 1489 1490 1492 1495 1499 1502 1497 1496 1499 1502 1505 1508 1510 1512 1514 1516 1518 1519 1521 1522 1523 1523 1524 1525 1525 1526 1526 1527 1527 1527 1528 1528 1528 1528 1528 1529 1529
1487 1490 1494 1495 1504 1512 1505 1495 1493 1489 1487 1488 1488 1489 1490 1492 1493 1494 1494 1496 1500 1502 1505 1507 1510 1512 1514 1516 1518 1519 1520 1521 1522 1523 1524 1524 1525 1525 1526 1526 1526 1527 1527 1527 1527 1528 1528 1528 1528
1487 1490 1493 1496 1503 1504 1495 1488 1488 1486 1487 1487 1488 1489 1490 1491 1492 1493 1495 1497 1500 1503 1505 1508 1510 1512 1514 1516 1517 1519 1520 1521 1522 1523 1523 1524 1525 1525 1525 1525 1526 1526 1526 1526 1526 1527 1527 1527 1527
1487 1491 1493 1498 1498 1493 1488 1484 1484 1485 1486 1486 1487 1489 1490 1492 1492 1494 1495 1498 1500 1503 1506 1508 1510 1512 1514 1516 1517 1518 1520 1521 1521 1522 1523 1523 1524 1524 1524 1524 1525 1525 1525 1525 1525 1526 1526 1526 1526
1486 1489 1494 1497 1493 1488 1484 1483 1483 1484 1485 1486 1487 1489 1490 1492 1492 1494 1496 1498 1501 1503 1506 1508 1510 1512 1514 1515 1516 1518 1519 1520 1521 1521 1522 1522 1523 1523 1523 1524 1524 1524 1524 1524 1524 1524 1524 1525 1525
1486 1487 1495 1496 1490 1485 1482 1482 1482 1483 1485 1486 1487 1488 1490 1491 1493 1495 1497 1499 1502 1504 1506 1508 1510 1512 1513 1515 1516 1517 1518 1519 1520 1520 1521 1521 1522 1522 1522 1522 1522 1522 1523 1523 1523 1523 1523 1523 1523
1484 1487 1490 1489 1488 1484 1481 1480 1481 1482 1483 1485 1485 1488 1489 1491 1493 1495 1497 1500 1502 1504 1506 1508 1510 1511 1513 1514 1516 1517 1518 1518 1519 1520 1520 1520 1521 1521 1521 1521 1521 1521 1521 1521 1521 1521 1522 1522 1522
1481 1485 1487 1487 1486 1482 1479 1478 1479 1480 1481 1483 1485 1486 1488 1490 1492 1495 1497 1500 1502 1504 1506 1507 1509 1511 1512 1514 1515 1516 1517 1517 1518 1519 1519 1519 1519 1520 1520 1520 1520 1520 1520 1520 1520 1520 1520 1520 1520
1479 1486 1485 1483 1482 1479 1477 1478 1479 1479 1480 1482 1483 1485 1486 1489 1491 1494 1497 1499 1501 1503 1505 1507 1508 1510 1512 1513 1514 1515 1516 1516 1517 1517 1518 1518 1518 1518 1518 1519 1519 1518 1518 1518 1518 1518 1518 1518 1518
1477 1482 1478 1475 1475 1476 1476 1477 1478 1479 1480 1481 1482 1484 1486 1488 1490 1493 1495 1497 1500 1502 1504 1506 1508 1509 1511 1512 1513 1514 1515 1515 1516 1516 1517 1517 1517 1517 1517 1517 1517 1517 1517 1517 1517 1517 1516 1516 1516
1474 1475 1473 1473 1473 1474 1475 1476 1477 1478 1480 1478 1479 1482 1485 1487 1490 1492 1494 1496 1498 1501 1503 1505 1506 1508 1509 1510 1512 1512 1513 1514 1515 1515 1516 1516 1516 1516 1516 1516 1516 1516 1516 1516 1515 1515 1515 1514 1514
1473 1472 1472 1471 1472 1473 1474 1475 1476 1476 1476 1477 1479 1480 1483 1486 1488 1490 1493 1495 1498 1500 1501 1503 1505 1507 1508 1509 1510 1511 1512 1513 1513 1514 1514 1515 1515 1515 1515 1515 1515 1515 1515 1514 1514 1513 1513 1513 1512
1470 1470 1470 1471 1471 1472 1473 1474 1474 1474 1475 1476 1478 1480 1482 1485 1488 1490 1492 1494 1496 1498 1500 1502 1504 1505 1506 1508 1509 1510 1510 1511 1512 1513 1513 1513 1513 1513 1513 1513 1513 1513 1513 1513 1512 1512 1511 1510 1510
1468 1469 1469 1470 1470 1471 1472 1472 1474 1473 1474 1475 1476 1478 1481 1483 1486 1488 1490 1492 1494 1497 1499 1501 1502 1504 1505 1506 1507 1508 1509 1510 1510 1511 1511 1511 1512 1512 1512 1512 1512 1512 1511 1511 1510 1510 1509 1508 1507
1467 1469 1469 1469 1469 1470 1471 1473 1473 1471 1473 1474 1475 1477 1479 1481 1484 1486 1488 1490 1492 1495 1497 1499 1500 1502 1503 1504 1505 1506 1507 1508 1508 1509 1509 1510 1510 1510 1510 1510 1510 1510 1509 1509 1508 1508 1507 1506 1505
1467 1470 1473 1469 1468 1469 1474 1474 1471 1470 1471 1472 1473 1475 1477 1479 1481 1484 1486 1488 1490 1492 1494 1496 1498 1500 1501 1502 1503 1504 1505 1506 1506 1507 1507 1508 1508 1508 1508 1508 1508 1508 1507 1507 1506 1506 1505 1504 1503
1470 1474 1473 1470 1467 1468 1471 1472 1470 1469 1470 1471 1472 1473 1475 1477 1479 1481 1483 1485 1488 1490 1492 1494 1495 1497 1499 1500 1501 1503 1503 1504 1504 1505 1505 1506 1506 1506 1506 1506 1506 1506 1505 1505 1504 1504 1503 1502 1501
1472 1473 1472 1471 1467 1469 1471 1470 1469 1469 1470 1470 1471 1472 1473 1474 1476 1478 1480 1482 1485 1487 1489 1491 1493 1494 1496 1498 1499 1500 1501 1502 1502 1503 1503 1503 1504 1504 1504 1504 1504 1503 1503 1503 1502 1501 1501 1500 1499
1468 1471 1472 1471 1468 1469 1470 1470 1469 1468 1468 1469 1469 1469 1470 1472 1474 1476 1477 1479 1481 1483 1485 1487 1489 1491 1493 1494 1496 1497 1498 1499 1500 1500 1501 1501 1501 1501 1501 1501 1501 1501 1501 1500 1500 1499 1499 1498 1497
1467 1471 1472 1471 1468 1469 1470 1469 1467 1466 1466 1465 1466 1467 1468 1469 1470 1472 1474 1476 1478 1480 1482 1484 1486 1488 1489 1491 1493 1494 1496 1497 1497 1498 1498 1499 1499 1499 1499 1499 1499 1499 1498 1498 1498 1497 1496 1496 1495
1466 1469 1471 1472 1470 1469 1470 1469 1466 1463 1463 1464 1464 1465 1465 1466 1467 1469 1471 1473 1474 1476 1478 1480 1482 1484 1486 1488 1490 1492 1493 1494 1494 1495 1495 1496 1496 1497 1497 1497 1496 1496 1496 1496 1495 1495 1494 1494 1494
1466 1465 1467 1470 1474 1477 1473 1476 1467 1464 1463 1462 1462 1462 1462 1463 1464 1466 1468 1469 1471 1474 1476 1478 1479 1481 1483 1485 1486 1488 1488 1489 1490 1491 1492 1493 1494 1494 1494 1494 1494 1494 1494 1493 1493 1493 1492 1492 1491
1464 1464 1467 1470 1474 1478 1476 1478 1470 1465 1464 1461 1460 1459 1460 1461 1462 1463 1465 1467 1469 1471 1473 1474 1476 1478 1480 1481 1483 1484 1486 1487 1488 1489 1490 1491 1491 1491 1492 1492 1492 1491 1491 1491 1491 1490 1490 1490 1489
1463 1466 1469 1472 1475 1478 1474 1478 1472 1467 1462 1458 1457 1457 1457 1459 1460 1461 1463 1465 1466 1468 1470 1471 1473 1474 1476 1478 1480 1481 1483 1484 1485 1486 1487 1487 1488 1488 1489 1489 1489 1489 1489 1488 1488 1488 1488 1487 1487
1463 1469 1477 1477 1479 1475 1472 1473 1469 1460 1458 1456 1455 1455 1455 1457 1458 1460 1461 1462 1464 1465 1467 1468 1470 1471 1473 1475 1477 1478 1480 1481 1482 1483 1484 1484 1485 1485 1486 1486 1486 1486 1486 1486 1486 1485 1485 1484 1484
1464 1467 1475 1477 1477 1476 1474 1473 1464 1458 1456 1454 1454 1453 1454 1455 1457 1458 1460 1461 1462 1463 1464 1466 1467 1469 1470 1472 1474 1476 1477 1479 1480 1481 1481 1482 1482 1483 1483 1483 1483 1483 1483 1483 1483 1482 1482 1481 1481
1465 1468 1469 1477 1480 1478 1474 1471 1462 1457 1455 1454 1453 1453 1453 1454 1456 1457 1458 1459 1460 1461 1462 1464 1465 1466 1468 1470 1471 1473 1474 1476 1477 1478 1479 1479 1480 1480 1480 1480 1480 1480 1480 1480 1479 1479 1479 1478 1478
1463 1467 1473 1476 1476 1473 1469 1469 1467 1458 1457 1455 1454 1454 1454 1455 1456 1456 1457 1458 1459 1460 1461 1462 1464 1465 1466 1467 1469 1470 1471 1473 1474 1475 1475 1476 1477 1477 1477 1477 1477 1477 1477 1477 1477 1476 1476 1475 1475
1467 1469 1471 1476 1476 1476 1474 1469 1459 1458 1457 1456 1455 1455 1455 1455 1456 1456 1457 1458 1459 1459 1460 1461 1462 1463 1464 1465 1466 1468 1469 1470 1471 1472 1472 1473 1474 1474 1474 1474 1474 1474 1474 1474 1474 1473 1473 1472 1472
1465 1467 1471 1474 1478 1480 1477 1471 1458 1458 1457 1456 1456 1456 1456 1456 1456 1457 1457 1457 1458 1459 1459 1460 1461 1461 1462 1463 1464 1465 1466 1467 1468 1469 1469 1470 1470 1471 1471 1471 1471 1471 1471 1471 1471 1470 1470 1470 1469